Year,Month,Day,Hour,Minute,Value (Times are PST for temperature in C)
2014,07,08,00,00,17.70
2014,07,08,00,01,17.70
2014,07,08,00,02,17.60
2014,07,08,00,03,17.60
2014,07,08,00,04,17.60
2014,07,08,00,05,17.50
2014,07,08,00,06,17.50
2014,07,08,00,07,17.50
2014,07,08,00,08,17.40
2014,07,08,00,09,17.40
2014,07,08,00,10,17.40
2014,07,08,00,11,17.30
2014,07,08,00,12,17.30
2014,07,08,00,13,17.30
2014,07,08,00,14,17.30
2014,07,08,00,15,17.30
2014,07,08,00,16,17.30
2014,07,08,00,17,17.30
2014,07,08,00,18,17.30
2014,07,08,00,19,17.30
2014,07,08,00,20,17.30
2014,07,08,00,21,17.30
2014,07,08,00,22,17.30
2014,07,08,00,23,17.30
2014,07,08,00,24,17.30
2014,07,08,00,25,17.30
2014,07,08,00,26,17.30
2014,07,08,00,27,17.30
2014,07,08,00,28,17.30
2014,07,08,00,29,17.30
2014,07,08,00,30,17.30
2014,07,08,00,31,17.30
2014,07,08,00,32,17.30
2014,07,08,00,33,17.30
2014,07,08,00,34,17.30
2014,07,08,00,35,17.30
2014,07,08,00,36,17.30
2014,07,08,00,37,17.30
2014,07,08,00,38,17.30
2014,07,08,00,39,17.20
2014,07,08,00,40,17.20
2014,07,08,00,41,17.20
2014,07,08,00,42,17.20
2014,07,08,00,43,17.20
2014,07,08,00,44,17.10
2014,07,08,00,45,17.10
2014,07,08,00,46,17.00
2014,07,08,00,47,17.00
2014,07,08,00,48,16.90
2014,07,08,00,49,16.90
2014,07,08,00,50,16.80
2014,07,08,00,51,16.80
2014,07,08,00,52,16.80
2014,07,08,00,53,16.80
2014,07,08,00,54,16.70
2014,07,08,00,55,16.70
2014,07,08,00,56,16.70
2014,07,08,00,57,16.70
2014,07,08,00,58,16.70
2014,07,08,00,59,16.60
2014,07,08,01,00,16.60
2014,07,08,01,01,16.60
2014,07,08,01,02,16.60
2014,07,08,01,03,16.50
2014,07,08,01,04,16.50
2014,07,08,01,05,16.50
2014,07,08,01,06,16.40
2014,07,08,01,07,16.40
2014,07,08,01,08,16.40
2014,07,08,01,09,16.40
2014,07,08,01,10,16.40
2014,07,08,01,11,16.40
2014,07,08,01,12,16.30
2014,07,08,01,13,16.30
2014,07,08,01,14,16.30
2014,07,08,01,15,16.30
2014,07,08,01,16,16.30
2014,07,08,01,17,16.30
2014,07,08,01,18,16.30
2014,07,08,01,19,16.30
2014,07,08,01,20,16.30
2014,07,08,01,21,16.30
2014,07,08,01,22,16.30
2014,07,08,01,23,16.20
2014,07,08,01,24,16.20
2014,07,08,01,25,16.20
2014,07,08,01,26,16.20
2014,07,08,01,27,16.20
2014,07,08,01,28,16.20
2014,07,08,01,29,16.20
2014,07,08,01,30,16.20
2014,07,08,01,31,16.20
2014,07,08,01,32,16.20
2014,07,08,01,33,16.20
2014,07,08,01,34,16.20
2014,07,08,01,35,16.20
2014,07,08,01,36,16.20
2014,07,08,01,37,16.20
2014,07,08,01,38,16.10
2014,07,08,01,39,16.10
2014,07,08,01,40,16.10
2014,07,08,01,41,16.10
2014,07,08,01,42,16.10
2014,07,08,01,43,16.10
2014,07,08,01,44,16.10
2014,07,08,01,45,16.10
2014,07,08,01,46,16.10
2014,07,08,01,47,16.00
2014,07,08,01,48,16.00
2014,07,08,01,49,16.00
2014,07,08,01,50,16.00
2014,07,08,01,51,16.00
2014,07,08,01,52,16.00
2014,07,08,01,53,16.00
2014,07,08,01,54,16.00
2014,07,08,01,55,16.00
2014,07,08,01,56,16.00
2014,07,08,01,57,16.00
2014,07,08,01,58,16.00
2014,07,08,01,59,16.00
2014,07,08,02,00,16.00
2014,07,08,02,01,16.00
2014,07,08,02,02,16.00
2014,07,08,02,03,16.00
2014,07,08,02,04,16.00
2014,07,08,02,05,16.00
2014,07,08,02,06,16.00
2014,07,08,02,07,16.00
2014,07,08,02,08,16.00
2014,07,08,02,09,16.00
2014,07,08,02,10,16.00
2014,07,08,02,11,15.90
2014,07,08,02,12,15.90
2014,07,08,02,13,15.90
2014,07,08,02,14,15.90
2014,07,08,02,15,15.90
2014,07,08,02,16,15.80
2014,07,08,02,17,15.80
2014,07,08,02,18,15.80
2014,07,08,02,19,15.80
2014,07,08,02,20,15.80
2014,07,08,02,21,15.80
2014,07,08,02,22,15.70
2014,07,08,02,23,15.70
2014,07,08,02,24,15.70
2014,07,08,02,25,15.70
2014,07,08,02,26,15.70
2014,07,08,02,27,15.60
2014,07,08,02,28,15.60
2014,07,08,02,29,15.60
2014,07,08,02,30,15.60
2014,07,08,02,31,15.60
2014,07,08,02,32,15.50
2014,07,08,02,33,15.50
2014,07,08,02,34,15.50
2014,07,08,02,35,15.50
2014,07,08,02,36,15.40
2014,07,08,02,37,15.40
2014,07,08,02,38,15.40
2014,07,08,02,39,15.40
2014,07,08,02,40,15.40
2014,07,08,02,41,15.40
2014,07,08,02,42,15.40
2014,07,08,02,43,15.40
2014,07,08,02,44,15.30
2014,07,08,02,45,15.30
2014,07,08,02,46,15.30
2014,07,08,02,47,15.30
2014,07,08,02,48,15.30
2014,07,08,02,49,15.30
2014,07,08,02,50,15.30
2014,07,08,02,51,15.30
2014,07,08,02,52,15.30
2014,07,08,02,53,15.30
2014,07,08,02,54,15.40
2014,07,08,02,55,15.40
2014,07,08,02,56,15.40
2014,07,08,02,57,15.30
2014,07,08,02,58,15.30
2014,07,08,02,59,15.30
2014,07,08,03,00,15.30
2014,07,08,03,01,15.30
2014,07,08,03,02,15.30
2014,07,08,03,03,15.30
2014,07,08,03,04,15.30
2014,07,08,03,05,15.20
2014,07,08,03,06,15.20
2014,07,08,03,07,15.20
2014,07,08,03,08,15.20
2014,07,08,03,09,15.10
2014,07,08,03,10,15.10
2014,07,08,03,11,15.00
2014,07,08,03,12,15.00
2014,07,08,03,13,15.00
2014,07,08,03,14,14.90
2014,07,08,03,15,14.90
2014,07,08,03,16,14.90
2014,07,08,03,17,14.90
2014,07,08,03,18,14.90
2014,07,08,03,19,14.90
2014,07,08,03,20,14.90
2014,07,08,03,21,14.80
2014,07,08,03,22,14.80
2014,07,08,03,23,14.80
2014,07,08,03,24,14.80
2014,07,08,03,25,14.80
2014,07,08,03,26,14.80
2014,07,08,03,27,14.80
2014,07,08,03,28,14.70
2014,07,08,03,29,14.70
2014,07,08,03,30,14.70
2014,07,08,03,31,14.70
2014,07,08,03,32,14.70
2014,07,08,03,33,14.70
2014,07,08,03,34,14.70
2014,07,08,03,35,14.70
2014,07,08,03,36,14.70
2014,07,08,03,37,14.70
2014,07,08,03,38,14.70
2014,07,08,03,39,14.70
2014,07,08,03,40,14.70
2014,07,08,03,41,14.70
2014,07,08,03,42,14.70
2014,07,08,03,43,14.70
2014,07,08,03,44,14.70
2014,07,08,03,45,14.70
2014,07,08,03,46,14.70
2014,07,08,03,47,14.70
2014,07,08,03,48,14.70
2014,07,08,03,49,14.70
2014,07,08,03,50,14.60
2014,07,08,03,51,14.60
2014,07,08,03,52,14.60
2014,07,08,03,53,14.60
2014,07,08,03,54,14.60
2014,07,08,03,55,14.60
2014,07,08,03,56,14.60
2014,07,08,03,57,14.50
2014,07,08,03,58,14.50
2014,07,08,03,59,14.50
2014,07,08,04,00,14.40
2014,07,08,04,01,14.40
2014,07,08,04,02,14.40
2014,07,08,04,03,14.30
2014,07,08,04,04,14.30
2014,07,08,04,05,14.30
2014,07,08,04,06,14.30
2014,07,08,04,07,14.30
2014,07,08,04,08,14.30
2014,07,08,04,09,14.30
2014,07,08,04,10,14.30
2014,07,08,04,11,14.20
2014,07,08,04,12,14.20
2014,07,08,04,13,14.20
2014,07,08,04,14,14.20
2014,07,08,04,15,14.20
2014,07,08,04,16,14.20
2014,07,08,04,17,14.20
2014,07,08,04,18,14.20
2014,07,08,04,19,14.20
2014,07,08,04,20,14.20
2014,07,08,04,21,14.20
2014,07,08,04,22,14.20
2014,07,08,04,23,14.20
2014,07,08,04,24,14.20
2014,07,08,04,25,14.20
2014,07,08,04,26,14.20
2014,07,08,04,27,14.20
2014,07,08,04,28,14.20
2014,07,08,04,29,14.20
2014,07,08,04,30,14.20
2014,07,08,04,31,14.20
2014,07,08,04,32,14.20
2014,07,08,04,33,14.20
2014,07,08,04,34,14.20
2014,07,08,04,35,14.20
2014,07,08,04,36,14.20
2014,07,08,04,37,14.10
2014,07,08,04,38,14.10
2014,07,08,04,39,14.10
2014,07,08,04,40,14.10
2014,07,08,04,41,14.00
2014,07,08,04,42,14.00
2014,07,08,04,43,14.00
2014,07,08,04,44,13.90
2014,07,08,04,45,13.90
2014,07,08,04,46,13.90
2014,07,08,04,47,13.90
2014,07,08,04,48,13.90
2014,07,08,04,49,13.90
2014,07,08,04,50,13.90
2014,07,08,04,51,13.90
2014,07,08,04,52,13.90
2014,07,08,04,53,13.90
2014,07,08,04,54,13.90
2014,07,08,04,55,13.90
2014,07,08,04,56,13.90
2014,07,08,04,57,13.90
2014,07,08,04,58,13.80
2014,07,08,04,59,13.80
2014,07,08,05,00,13.80
2014,07,08,05,01,13.80
2014,07,08,05,02,13.80
2014,07,08,05,03,13.80
2014,07,08,05,04,13.80
2014,07,08,05,05,13.80
2014,07,08,05,06,13.80
2014,07,08,05,07,13.80
2014,07,08,05,08,13.80
2014,07,08,05,09,13.80
2014,07,08,05,10,13.80
2014,07,08,05,11,13.80
2014,07,08,05,12,13.80
2014,07,08,05,13,13.80
2014,07,08,05,14,13.80
2014,07,08,05,15,13.80
2014,07,08,05,16,13.80
2014,07,08,05,17,13.80
2014,07,08,05,18,13.80
2014,07,08,05,19,13.80
2014,07,08,05,20,13.80
2014,07,08,05,21,13.80
2014,07,08,05,22,13.90
2014,07,08,05,23,13.90
2014,07,08,05,24,13.90
2014,07,08,05,25,13.90
2014,07,08,05,26,13.90
2014,07,08,05,27,13.90
2014,07,08,05,28,13.90
2014,07,08,05,29,13.90
2014,07,08,05,30,13.90
2014,07,08,05,31,13.90
2014,07,08,05,32,13.80
2014,07,08,05,33,13.80
2014,07,08,05,34,13.80
2014,07,08,05,35,13.80
2014,07,08,05,36,13.80
2014,07,08,05,37,13.80
2014,07,08,05,38,13.80
2014,07,08,05,39,13.80
2014,07,08,05,40,13.80
2014,07,08,05,41,13.80
2014,07,08,05,42,13.80
2014,07,08,05,43,13.80
2014,07,08,05,44,13.80
2014,07,08,05,45,13.70
2014,07,08,05,46,13.70
2014,07,08,05,47,13.70
2014,07,08,05,48,13.70
2014,07,08,05,49,13.70
2014,07,08,05,50,13.70
2014,07,08,05,51,13.70
2014,07,08,05,52,13.70
2014,07,08,05,53,13.70
2014,07,08,05,54,13.70
2014,07,08,05,55,13.70
2014,07,08,05,56,13.70
2014,07,08,05,57,13.70
2014,07,08,05,58,13.70
2014,07,08,05,59,13.70
2014,07,08,06,00,13.80
2014,07,08,06,01,13.80
2014,07,08,06,02,13.80
2014,07,08,06,03,13.80
2014,07,08,06,04,13.80
2014,07,08,06,05,13.80
2014,07,08,06,06,13.80
2014,07,08,06,07,13.80
2014,07,08,06,08,13.80
2014,07,08,06,09,13.90
2014,07,08,06,10,13.90
2014,07,08,06,11,13.90
2014,07,08,06,12,13.90
2014,07,08,06,13,13.90
2014,07,08,06,14,13.90
2014,07,08,06,15,14.00
2014,07,08,06,16,14.00
2014,07,08,06,17,14.00
2014,07,08,06,18,14.10
2014,07,08,06,19,14.10
2014,07,08,06,20,14.20
2014,07,08,06,21,14.20
2014,07,08,06,22,14.30
2014,07,08,06,23,14.40
2014,07,08,06,24,14.40
2014,07,08,06,25,14.50
2014,07,08,06,26,14.50
2014,07,08,06,27,14.60
2014,07,08,06,28,14.60
2014,07,08,06,29,14.70
2014,07,08,06,30,14.70
2014,07,08,06,31,14.80
2014,07,08,06,32,14.80
2014,07,08,06,33,14.90
2014,07,08,06,34,15.00
2014,07,08,06,35,15.10
2014,07,08,06,36,15.10
2014,07,08,06,37,15.20
2014,07,08,06,38,15.30
2014,07,08,06,39,15.30
2014,07,08,06,40,15.40
2014,07,08,06,41,15.40
2014,07,08,06,42,15.50
2014,07,08,06,43,15.50
2014,07,08,06,44,15.60
2014,07,08,06,45,15.60
2014,07,08,06,46,15.70
2014,07,08,06,47,15.70
2014,07,08,06,48,15.70
2014,07,08,06,49,15.80
2014,07,08,06,50,15.80
2014,07,08,06,51,15.90
2014,07,08,06,52,16.00
2014,07,08,06,53,16.00
2014,07,08,06,54,16.10
2014,07,08,06,55,16.10
2014,07,08,06,56,16.10
2014,07,08,06,57,16.20
2014,07,08,06,58,16.20
2014,07,08,06,59,16.20
2014,07,08,07,00,16.20
2014,07,08,07,01,16.20
2014,07,08,07,02,16.30
2014,07,08,07,03,16.30
2014,07,08,07,04,16.30
2014,07,08,07,05,16.30
2014,07,08,07,06,16.40
2014,07,08,07,07,16.40
2014,07,08,07,08,16.50
2014,07,08,07,09,16.50
2014,07,08,07,10,16.60
2014,07,08,07,11,16.70
2014,07,08,07,12,16.80
2014,07,08,07,13,16.90
2014,07,08,07,14,17.00
2014,07,08,07,15,17.10
2014,07,08,07,16,17.20
2014,07,08,07,17,17.30
2014,07,08,07,18,17.50
2014,07,08,07,19,17.60
2014,07,08,07,20,17.80
2014,07,08,07,21,18.00
2014,07,08,07,22,18.10
2014,07,08,07,23,18.20
2014,07,08,07,24,18.40
2014,07,08,07,25,18.50
2014,07,08,07,26,18.60
2014,07,08,07,27,18.60
2014,07,08,07,28,18.70
2014,07,08,07,29,18.70
2014,07,08,07,30,18.80
2014,07,08,07,31,18.90
2014,07,08,07,32,19.00
2014,07,08,07,33,19.10
2014,07,08,07,34,19.20
2014,07,08,07,35,19.30
2014,07,08,07,36,19.50
2014,07,08,07,37,19.60
2014,07,08,07,38,19.60
2014,07,08,07,39,19.70
2014,07,08,07,40,19.80
2014,07,08,07,41,19.90
2014,07,08,07,42,19.90
2014,07,08,07,43,20.00
2014,07,08,07,44,20.00
2014,07,08,07,45,20.00
2014,07,08,07,46,20.00
2014,07,08,07,47,20.10
2014,07,08,07,48,20.10
2014,07,08,07,49,20.20
2014,07,08,07,50,20.30
2014,07,08,07,51,20.30
2014,07,08,07,52,20.40
2014,07,08,07,53,20.40
2014,07,08,07,54,20.50
2014,07,08,07,55,20.60
2014,07,08,07,56,20.60
2014,07,08,07,57,20.70
2014,07,08,07,58,20.70
2014,07,08,07,59,20.70
2014,07,08,08,00,20.80
2014,07,08,08,01,20.80
2014,07,08,08,02,20.80
2014,07,08,08,03,20.80
2014,07,08,08,04,20.90
2014,07,08,08,05,20.90
2014,07,08,08,06,20.90
2014,07,08,08,07,21.00
2014,07,08,08,08,21.10
2014,07,08,08,09,21.10
2014,07,08,08,10,21.10
2014,07,08,08,11,21.20
2014,07,08,08,12,21.20
2014,07,08,08,13,21.30
2014,07,08,08,14,21.30
2014,07,08,08,15,21.30
2014,07,08,08,16,21.30
2014,07,08,08,17,21.30
2014,07,08,08,18,21.30
2014,07,08,08,19,21.30
2014,07,08,08,20,21.30
2014,07,08,08,21,21.30
2014,07,08,08,22,21.30
2014,07,08,08,23,21.30
2014,07,08,08,24,21.30
2014,07,08,08,25,21.30
2014,07,08,08,26,21.30
2014,07,08,08,27,21.30
2014,07,08,08,28,21.30
2014,07,08,08,29,21.40
2014,07,08,08,30,21.40
2014,07,08,08,31,21.40
2014,07,08,08,32,21.50
2014,07,08,08,33,21.50
2014,07,08,08,34,21.50
2014,07,08,08,35,21.60
2014,07,08,08,36,21.60
2014,07,08,08,37,21.70
2014,07,08,08,38,21.70
2014,07,08,08,39,21.70
2014,07,08,08,40,21.80
2014,07,08,08,41,21.90
2014,07,08,08,42,22.00
2014,07,08,08,43,22.00
2014,07,08,08,44,22.10
2014,07,08,08,45,22.20
2014,07,08,08,46,22.30
2014,07,08,08,47,22.30
2014,07,08,08,48,22.40
2014,07,08,08,49,22.40
2014,07,08,08,50,22.50
2014,07,08,08,51,22.50
2014,07,08,08,52,22.60
2014,07,08,08,53,22.60
2014,07,08,08,54,22.70
2014,07,08,08,55,22.70
2014,07,08,08,56,22.70
2014,07,08,08,57,22.70
2014,07,08,08,58,22.70
2014,07,08,08,59,22.70
2014,07,08,09,00,22.70
2014,07,08,09,01,22.70
2014,07,08,09,02,22.60
2014,07,08,09,03,22.60
2014,07,08,09,04,22.60
2014,07,08,09,05,22.60
2014,07,08,09,06,22.60
2014,07,08,09,07,22.70
2014,07,08,09,08,22.60
2014,07,08,09,09,22.60
2014,07,08,09,10,22.60
2014,07,08,09,11,22.60
2014,07,08,09,12,22.60
2014,07,08,09,13,22.50
2014,07,08,09,14,22.50
2014,07,08,09,15,22.50
2014,07,08,09,16,22.50
2014,07,08,09,17,22.60
2014,07,08,09,18,22.70
2014,07,08,09,19,22.80
2014,07,08,09,20,22.80
2014,07,08,09,21,22.90
2014,07,08,09,22,23.00
2014,07,08,09,23,23.10
2014,07,08,09,24,23.10
2014,07,08,09,25,23.10
2014,07,08,09,26,23.10
2014,07,08,09,27,23.00
2014,07,08,09,28,23.00
2014,07,08,09,29,23.00
2014,07,08,09,30,23.00
2014,07,08,09,31,23.00
2014,07,08,09,32,23.00
2014,07,08,09,33,23.10
2014,07,08,09,34,23.00
2014,07,08,09,35,23.00
2014,07,08,09,36,22.90
2014,07,08,09,37,22.80
2014,07,08,09,38,22.80
2014,07,08,09,39,22.80
2014,07,08,09,40,22.80
2014,07,08,09,41,22.80
2014,07,08,09,42,22.80
2014,07,08,09,43,22.80
2014,07,08,09,44,22.80
2014,07,08,09,45,22.90
2014,07,08,09,46,23.00
2014,07,08,09,47,23.00
2014,07,08,09,48,23.20
2014,07,08,09,49,23.30
2014,07,08,09,50,23.30
2014,07,08,09,51,23.30
2014,07,08,09,52,23.40
2014,07,08,09,53,23.40
2014,07,08,09,54,23.50
2014,07,08,09,55,23.60
2014,07,08,09,56,23.60
2014,07,08,09,57,23.60
2014,07,08,09,58,23.60
2014,07,08,09,59,23.60
2014,07,08,10,00,23.60
2014,07,08,10,01,23.60
2014,07,08,10,02,23.60
2014,07,08,10,03,23.60
2014,07,08,10,04,23.60
2014,07,08,10,05,23.70
2014,07,08,10,06,23.70
2014,07,08,10,07,23.70
2014,07,08,10,08,23.80
2014,07,08,10,09,23.80
2014,07,08,10,10,23.80
2014,07,08,10,11,23.80
2014,07,08,10,12,23.80
2014,07,08,10,13,23.90
2014,07,08,10,14,24.00
2014,07,08,10,15,24.10
2014,07,08,10,16,24.10
2014,07,08,10,17,24.10
2014,07,08,10,18,24.10
2014,07,08,10,19,24.10
2014,07,08,10,20,24.00
2014,07,08,10,21,24.00
2014,07,08,10,22,23.90
2014,07,08,10,23,23.80
2014,07,08,10,24,23.80
2014,07,08,10,25,23.80
2014,07,08,10,26,23.80
2014,07,08,10,27,23.80
2014,07,08,10,28,23.90
2014,07,08,10,29,23.90
2014,07,08,10,30,23.90
2014,07,08,10,31,23.90
2014,07,08,10,32,23.90
2014,07,08,10,33,23.80
2014,07,08,10,34,23.80
2014,07,08,10,35,23.80
2014,07,08,10,36,23.90
2014,07,08,10,37,23.90
2014,07,08,10,38,23.90
2014,07,08,10,39,23.80
2014,07,08,10,40,23.90
2014,07,08,10,41,23.90
2014,07,08,10,42,24.00
2014,07,08,10,43,24.10
2014,07,08,10,44,24.20
2014,07,08,10,45,24.20
2014,07,08,10,46,24.10
2014,07,08,10,47,24.10
2014,07,08,10,48,24.10
2014,07,08,10,49,24.00
2014,07,08,10,50,24.00
2014,07,08,10,51,23.90
2014,07,08,10,52,23.90
2014,07,08,10,53,23.90
2014,07,08,10,54,23.80
2014,07,08,10,55,23.60
2014,07,08,10,56,23.50
2014,07,08,10,57,23.40
2014,07,08,10,58,23.40
2014,07,08,10,59,23.50
2014,07,08,11,00,23.70
2014,07,08,11,01,23.80
2014,07,08,11,02,23.90
2014,07,08,11,03,23.90
2014,07,08,11,04,23.90
2014,07,08,11,05,23.80
2014,07,08,11,06,23.70
2014,07,08,11,07,23.60
2014,07,08,11,08,23.60
2014,07,08,11,09,23.70
2014,07,08,11,10,23.80
2014,07,08,11,11,23.80
2014,07,08,11,12,23.90
2014,07,08,11,13,23.90
2014,07,08,11,14,23.90
2014,07,08,11,15,23.70
2014,07,08,11,16,23.70
2014,07,08,11,17,23.70
2014,07,08,11,18,23.80
2014,07,08,11,19,23.80
2014,07,08,11,20,23.70
2014,07,08,11,21,23.70
2014,07,08,11,22,23.60
2014,07,08,11,23,23.40
2014,07,08,11,24,23.50
2014,07,08,11,25,23.60
2014,07,08,11,26,23.70
2014,07,08,11,27,23.60
2014,07,08,11,28,23.60
2014,07,08,11,29,23.60
2014,07,08,11,30,23.60
2014,07,08,11,31,23.60
2014,07,08,11,32,23.70
2014,07,08,11,33,23.70
2014,07,08,11,34,23.80
2014,07,08,11,35,23.90
2014,07,08,11,36,23.90
2014,07,08,11,37,23.90
2014,07,08,11,38,23.90
2014,07,08,11,39,23.90
2014,07,08,11,40,23.90
2014,07,08,11,41,23.90
2014,07,08,11,42,24.00
2014,07,08,11,43,24.10
2014,07,08,11,44,24.10
2014,07,08,11,45,24.10
2014,07,08,11,46,24.10
2014,07,08,11,47,24.20
2014,07,08,11,48,24.20
2014,07,08,11,49,24.20
2014,07,08,11,50,24.20
2014,07,08,11,51,24.30
2014,07,08,11,52,24.30
2014,07,08,11,53,24.20
2014,07,08,11,54,24.20
2014,07,08,11,55,24.30
2014,07,08,11,56,24.30
2014,07,08,11,57,24.30
2014,07,08,11,58,24.20
2014,07,08,11,59,24.20
2014,07,08,12,00,24.30
2014,07,08,12,01,24.30
2014,07,08,12,02,24.30
2014,07,08,12,03,24.30
2014,07,08,12,04,24.30
2014,07,08,12,05,24.30
2014,07,08,12,06,24.30
2014,07,08,12,07,24.20
2014,07,08,12,08,24.10
2014,07,08,12,09,24.10
2014,07,08,12,10,24.00
2014,07,08,12,11,24.00
2014,07,08,12,12,24.00
2014,07,08,12,13,24.10
2014,07,08,12,14,24.10
2014,07,08,12,15,24.10
2014,07,08,12,16,24.00
2014,07,08,12,17,24.00
2014,07,08,12,18,24.00
2014,07,08,12,19,24.10
2014,07,08,12,20,24.20
2014,07,08,12,21,24.20
2014,07,08,12,22,24.30
2014,07,08,12,23,24.20
2014,07,08,12,24,24.10
2014,07,08,12,25,24.10
2014,07,08,12,26,24.10
2014,07,08,12,27,24.10
2014,07,08,12,28,24.10
2014,07,08,12,29,24.10
2014,07,08,12,30,24.10
2014,07,08,12,31,24.00
2014,07,08,12,32,24.00
2014,07,08,12,33,24.00
2014,07,08,12,34,24.00
2014,07,08,12,35,24.10
2014,07,08,12,36,24.20
2014,07,08,12,37,24.20
2014,07,08,12,38,24.30
2014,07,08,12,39,24.30
2014,07,08,12,40,24.30
2014,07,08,12,41,24.30
2014,07,08,12,42,24.20
2014,07,08,12,43,24.10
2014,07,08,12,44,24.10
2014,07,08,12,45,24.20
2014,07,08,12,46,24.20
2014,07,08,12,47,24.20
2014,07,08,12,48,24.20
2014,07,08,12,49,24.20
2014,07,08,12,50,24.20
2014,07,08,12,51,24.20
2014,07,08,12,52,24.20
2014,07,08,12,53,24.10
2014,07,08,12,54,24.00
2014,07,08,12,55,23.90
2014,07,08,12,56,23.80
2014,07,08,12,57,23.80
2014,07,08,12,58,23.80
2014,07,08,12,59,23.80
2014,07,08,13,00,23.80
2014,07,08,13,01,23.80
2014,07,08,13,02,23.90
2014,07,08,13,03,24.00
2014,07,08,13,04,24.20
2014,07,08,13,05,24.30
2014,07,08,13,06,24.40
2014,07,08,13,07,24.40
2014,07,08,13,08,24.40
2014,07,08,13,09,24.30
2014,07,08,13,10,24.20
2014,07,08,13,11,24.20
2014,07,08,13,12,24.20
2014,07,08,13,13,24.10
2014,07,08,13,14,24.10
2014,07,08,13,15,24.10
2014,07,08,13,16,24.10
2014,07,08,13,17,24.10
2014,07,08,13,18,24.10
2014,07,08,13,19,24.10
2014,07,08,13,20,24.10
2014,07,08,13,21,24.10
2014,07,08,13,22,24.20
2014,07,08,13,23,24.30
2014,07,08,13,24,24.40
2014,07,08,13,25,24.40
2014,07,08,13,26,24.40
2014,07,08,13,27,24.40
2014,07,08,13,28,24.40
2014,07,08,13,29,24.30
2014,07,08,13,30,24.20
2014,07,08,13,31,24.10
2014,07,08,13,32,24.00
2014,07,08,13,33,23.90
2014,07,08,13,34,24.00
2014,07,08,13,35,24.10
2014,07,08,13,36,24.10
2014,07,08,13,37,24.20
2014,07,08,13,38,24.20
2014,07,08,13,39,24.10
2014,07,08,13,40,24.10
2014,07,08,13,41,24.20
2014,07,08,13,42,24.30
2014,07,08,13,43,24.30
2014,07,08,13,44,24.30
2014,07,08,13,45,24.30
2014,07,08,13,46,24.30
2014,07,08,13,47,24.30
2014,07,08,13,48,24.30
2014,07,08,13,49,24.30
2014,07,08,13,50,24.40
2014,07,08,13,51,24.40
2014,07,08,13,52,24.50
2014,07,08,13,53,24.60
2014,07,08,13,54,24.70
2014,07,08,13,55,24.70
2014,07,08,13,56,24.70
2014,07,08,13,57,24.70
2014,07,08,13,58,24.80
2014,07,08,13,59,24.80
2014,07,08,14,00,24.90
2014,07,08,14,01,24.90
2014,07,08,14,02,24.90
2014,07,08,14,03,25.00
2014,07,08,14,04,25.00
2014,07,08,14,05,24.90
2014,07,08,14,06,24.90
2014,07,08,14,07,25.00
2014,07,08,14,08,25.10
2014,07,08,14,09,25.20
2014,07,08,14,10,25.30
2014,07,08,14,11,25.40
2014,07,08,14,12,25.40
2014,07,08,14,13,25.40
2014,07,08,14,14,25.40
2014,07,08,14,15,25.40
2014,07,08,14,16,25.40
2014,07,08,14,17,25.40
2014,07,08,14,18,25.50
2014,07,08,14,19,25.60
2014,07,08,14,20,25.60
2014,07,08,14,21,25.60
2014,07,08,14,22,25.60
2014,07,08,14,23,25.60
2014,07,08,14,24,25.50
2014,07,08,14,25,25.50
2014,07,08,14,26,25.50
2014,07,08,14,27,25.40
2014,07,08,14,28,25.30
2014,07,08,14,29,25.40
2014,07,08,14,30,25.50
2014,07,08,14,31,25.60
2014,07,08,14,32,25.60
2014,07,08,14,33,25.70
2014,07,08,14,34,25.80
2014,07,08,14,35,25.70
2014,07,08,14,36,25.70
2014,07,08,14,37,25.70
2014,07,08,14,38,25.80
2014,07,08,14,39,25.80
2014,07,08,14,40,25.80
2014,07,08,14,41,25.70
2014,07,08,14,42,25.70
2014,07,08,14,43,25.70
2014,07,08,14,44,25.70
2014,07,08,14,45,25.70
2014,07,08,14,46,25.80
2014,07,08,14,47,26.00
2014,07,08,14,48,26.00
2014,07,08,14,49,26.00
2014,07,08,14,50,25.90
2014,07,08,14,51,25.90
2014,07,08,14,52,25.90
2014,07,08,14,53,26.00
2014,07,08,14,54,26.10
2014,07,08,14,55,26.10
2014,07,08,14,56,26.10
2014,07,08,14,57,26.00
2014,07,08,14,58,25.90
2014,07,08,14,59,25.90
2014,07,08,15,00,25.90
2014,07,08,15,01,25.90
2014,07,08,15,02,25.90
2014,07,08,15,03,26.10
2014,07,08,15,04,26.20
2014,07,08,15,05,26.20
2014,07,08,15,06,26.10
2014,07,08,15,07,26.10
2014,07,08,15,08,26.00
2014,07,08,15,09,26.10
2014,07,08,15,10,26.20
2014,07,08,15,11,26.30
2014,07,08,15,12,26.30
2014,07,08,15,13,26.30
2014,07,08,15,14,26.40
2014,07,08,15,15,26.40
2014,07,08,15,16,26.40
2014,07,08,15,17,26.30
2014,07,08,15,18,26.30
2014,07,08,15,19,26.30
2014,07,08,15,20,26.20
2014,07,08,15,21,26.30
2014,07,08,15,22,26.30
2014,07,08,15,23,26.40
2014,07,08,15,24,26.40
2014,07,08,15,25,26.50
2014,07,08,15,26,26.50
2014,07,08,15,27,26.50
2014,07,08,15,28,26.40
2014,07,08,15,29,26.40
2014,07,08,15,30,26.40
2014,07,08,15,31,26.40
2014,07,08,15,32,26.40
2014,07,08,15,33,26.40
2014,07,08,15,34,26.40
2014,07,08,15,35,26.40
2014,07,08,15,36,26.40
2014,07,08,15,37,26.50
2014,07,08,15,38,26.50
2014,07,08,15,39,26.60
2014,07,08,15,40,26.60
2014,07,08,15,41,26.60
2014,07,08,15,42,26.70
2014,07,08,15,43,26.80
2014,07,08,15,44,26.80
2014,07,08,15,45,26.80
2014,07,08,15,46,26.90
2014,07,08,15,47,26.90
2014,07,08,15,48,26.90
2014,07,08,15,49,26.90
2014,07,08,15,50,26.90
2014,07,08,15,51,26.90
2014,07,08,15,52,26.90
2014,07,08,15,53,26.90
2014,07,08,15,54,26.80
2014,07,08,15,55,26.80
2014,07,08,15,56,26.70
2014,07,08,15,57,26.70
2014,07,08,15,58,26.70
2014,07,08,15,59,26.60
2014,07,08,16,00,26.40
2014,07,08,16,01,26.30
2014,07,08,16,02,26.20
2014,07,08,16,03,26.20
2014,07,08,16,04,26.20
2014,07,08,16,05,26.10
2014,07,08,16,06,26.10
2014,07,08,16,07,26.10
2014,07,08,16,08,26.10
2014,07,08,16,09,26.20
2014,07,08,16,10,26.30
2014,07,08,16,11,26.30
2014,07,08,16,12,26.40
2014,07,08,16,13,26.40
2014,07,08,16,14,26.40
2014,07,08,16,15,26.40
2014,07,08,16,16,26.20
2014,07,08,16,17,26.10
2014,07,08,16,18,25.90
2014,07,08,16,19,25.90
2014,07,08,16,20,25.90
2014,07,08,16,21,25.80
2014,07,08,16,22,25.70
2014,07,08,16,23,25.70
2014,07,08,16,24,25.50
2014,07,08,16,25,25.40
2014,07,08,16,26,25.30
2014,07,08,16,27,25.30
2014,07,08,16,28,25.30
2014,07,08,16,29,25.30
2014,07,08,16,30,25.30
2014,07,08,16,31,25.20
2014,07,08,16,32,25.20
2014,07,08,16,33,25.10
2014,07,08,16,34,25.10
2014,07,08,16,35,25.10
2014,07,08,16,36,25.20
2014,07,08,16,37,25.20
2014,07,08,16,38,25.20
2014,07,08,16,39,25.30
2014,07,08,16,40,25.30
2014,07,08,16,41,25.30
2014,07,08,16,42,25.40
2014,07,08,16,43,25.40
2014,07,08,16,44,25.50
2014,07,08,16,45,25.50
2014,07,08,16,46,25.40
2014,07,08,16,47,25.40
2014,07,08,16,48,25.30
2014,07,08,16,49,25.30
2014,07,08,16,50,25.30
2014,07,08,16,51,25.30
2014,07,08,16,52,25.30
2014,07,08,16,53,25.30
2014,07,08,16,54,25.30
2014,07,08,16,55,25.30
2014,07,08,16,56,25.20
2014,07,08,16,57,25.20
2014,07,08,16,58,25.10
2014,07,08,16,59,25.10
2014,07,08,17,00,25.10
2014,07,08,17,01,25.00
2014,07,08,17,02,24.90
2014,07,08,17,03,24.90
2014,07,08,17,04,24.90
2014,07,08,17,05,24.90
2014,07,08,17,06,24.80
2014,07,08,17,07,24.80
2014,07,08,17,08,24.80
2014,07,08,17,09,24.90
2014,07,08,17,10,25.10
2014,07,08,17,11,25.20
2014,07,08,17,12,25.30
2014,07,08,17,13,25.40
2014,07,08,17,14,25.50
2014,07,08,17,15,25.50
2014,07,08,17,16,25.60
2014,07,08,17,17,25.60
2014,07,08,17,18,25.60
2014,07,08,17,19,25.60